Meteo Giornale » Osservazioni meteo Stati Uniti (USA) » Flint Bishop

ore: 15:53 - Osservazioni Meteo Flint Bishop
Lat. 42° 58' N Lon. 83° 44' W Alt. 238 metri s.l.m.

molto_nuvoloso

31 °C

Molto Nuvoloso

Temp. 24 Ore

21 °C

32 °C

Ovest

18.5 Km/h

Dew point 23 °C

Umidità 62 %

Visibilità  10 Km

Il sole sorge alle ore 06:59

Il sole tramonta alle ore 20:09

Data e Ora Cielo e Fenomeni T °C DP °C Um. % Pres. hPa Vis. km Vento km/h
Oggi h: 15:53 molto_nuvoloso Molto Nuvoloso 31 23 62 1014 10 O 18.5
Oggi h: 14:53 nuvoloso Nuvoloso 32 23 59 1014 10 O 14.8
Oggi h: 14:27 molto_nuvoloso Molto Nuvoloso 31 23 62 1014 10 O 11.1
Oggi h: 13:53 molto_nuvoloso Molto Nuvoloso 32 24 62 1014 10 O 13
Oggi h: 13:44 molto_nuvoloso Molto Nuvoloso 31 24 66 1014 10 SO 14.8
Oggi h: 12:53 sereno Sereno 29 23 70 1015 10 O/SO 11.1
Oggi h: 11:53 sereno Sereno 29 23 70 1015 10 N 5.5
Oggi h: 10:53 sereno Sereno 27 23 78 1015 10 N 0
Oggi h: 09:53 sereno Sereno 26 22 78 1015 10 O/SO 9.3
Oggi h: 08:53 sereno Sereno 23 21 88 1015 10 N 5.5
Oggi h: 07:53 sereno Sereno 22 21 94 1014 14 N 5.5
Oggi h: 06:53 sereno Sereno 21 21 100 1014 14 S/SO 7.4
Oggi h: 05:53 sereno Sereno 22 21 94 1014 10 O/SO 7.4
Oggi h: 04:53 sereno Sereno 22 21 94 1014 10 N 5.5
Oggi h: 03:53 sereno Sereno 22 21 94 1014 10 N 5.5
Oggi h: 02:53 sereno Sereno 23 21 88 1014 10 S/SO 7.4
Oggi h: 01:53 sereno Sereno 23 21 88 1014 10 SO 7.4
Oggi h: 00:53 nuvoloso Nuvoloso 23 21 88 1014 10 N 5.5
Ieri h: 23:53 sereno Sereno 24 20 78 1014 10 O/SO 9.3
Ieri h: 22:53 sereno Sereno 23 19 78 1014 10 SO 13
Ieri h: 21:53 sereno Sereno 23 19 78 1014 10 S/SO 11.1
Ieri h: 20:53 sereno Sereno 23 18 73 1014 10 S/SO 9.3
Ieri h: 19:53 coperto Coperto 23 19 78 1013 10 S 9.3
Ieri h: 18:53 molto_nuvoloso Molto Nuvoloso 24 19 73 1013 10 S 14.8
Ieri h: 18:05 molto_nuvoloso Molto Nuvoloso 24 19 73 1014 10 S 20.3
Ieri h: 17:53 nuvoloso_temporali Temporale nelle vicinanze 24 19 73 1014 10 S 18.5
Ieri h: 17:40 nuvoloso_temporali Temporale nelle vicinanze 24 19 73 1014 10 S 16.7
Ieri h: 16:53 poco_nuvoloso Poco Nuvoloso 24 21 83 1015 10 S/SO 18.5